This is the latest recevied weather packets stored in our database for station/object N9OJR. If no packets are shown the sender has not sent any weather packets the latest 10 day(s).
| Time | Temp. | Humidity | Pressure | Rain* | Wind** | Luminosity | Snow |
|---|---|---|---|---|---|---|---|
| 1778168657 | 13.33° C | 57% | 1009.2 hPa | 0 mm | - | 852 W/m² | - |
| 1778168355 | 13.89° C | 50% | 1009.4 hPa | 0 mm | - | 870 W/m² | - |
| 1778168051 | 13.33° C | 49% | 1009 hPa | 0 mm | - | 860 W/m² | - |
| 1778167748 | 13.33° C | 49% | 1009.2 hPa | 0 mm | - | 868 W/m² | - |
| 1778167444 | 13.33° C | 49% | 1009.2 hPa | 0 mm | - | 874 W/m² | - |
| 1778167140 | 13.33° C | 50% | 1009.2 hPa | 0 mm | - | 864 W/m² | - |
| 1778166836 | 13.33° C | 52% | 1009.3 hPa | 0 mm | - | 833 W/m² | - |
| 1778166534 | 12.78° C | 51% | 1009.2 hPa | 0 mm | - | 836 W/m² | - |
| 1778166230 | 13.33° C | 53% | 1009.3 hPa | 0 mm | - | 820 W/m² | - |
| 1778165926 | 12.78° C | 51% | 1009.3 hPa | 0 mm | - | 811 W/m² | - |
| 1778165623 | 12.78° C | 52% | 1009.4 hPa | 0 mm | - | 817 W/m² | - |
| 1778165320 | 12.78° C | 51% | 1009.6 hPa | 0 mm | - | 810 W/m² | - |
| 1778165017 | 13.33° C | 52% | 1009.4 hPa | 0 mm | - | 774 W/m² | - |
| 1778164714 | 12.78° C | 52% | 1009.2 hPa | 0 mm | - | 781 W/m² | - |
| 1778164411 | 12.78° C | 55% | 1009.3 hPa | 0 mm | - | 714 W/m² | - |
| 1778164107 | 12.78° C | 55% | 1009.3 hPa | 0 mm | - | 711 W/m² | - |
| 1778163803 | 12.22° C | 56% | 1009.6 hPa | 0 mm | - | 723 W/m² | - |
| 1778163500 | 12.78° C | 59% | 1009.3 hPa | 0 mm | - | 714 W/m² | - |
| 1778163197 | 12.22° C | 57% | 1009.4 hPa | 0 mm | - | 696 W/m² | - |
| 1778162893 | 12.22° C | 61% | 1009.5 hPa | 0 mm | - | 642 W/m² | - |
| 1778162590 | 11.67° C | 61% | 1009.5 hPa | 0 mm | - | 600 W/m² | - |
| 1778162288 | 12.22° C | 63% | 1009.5 hPa | 0 mm | - | 573 W/m² | - |
| 1778161985 | 11.67° C | 63% | 1009.8 hPa | 0 mm | - | 612 W/m² | - |
| 1778161681 | 11.67° C | 63% | 1009.7 hPa | 0 mm | - | 477 W/m² | - |
| 1778161378 | 11.67° C | 64% | 1009.7 hPa | 0 mm | - | 515 W/m² | - |
* Rain latest hour (hover to see other rain measurements)
** Current wind speed in m/s (hover to see current wind gust speed)